Flag for Austria Weather past 2 weeks in Kapfenberg, Styria, Austria

Now
54 °F

Passing clouds.


Feels Like: 54 °F
Forecast: 46 / 66 °F
Wind: 2 mph from Southwest

Location: Zeltweg

Current Time: Sep 17, 2014 at 5:36:15 AM

Latest Report: Sep 17, 2014 at 4:50 AM


Visibility: 6 mi

Pressure: 30.09 "Hg

Humidity: 94%

Dew point: 52 °F

Location of KapfenbergLocation

Historic Weather in Kapfenberg — Graph

°F

Kapfenberg temperature yesterday

Maximum temperature yesterday: 64 °F (at 3:20 PM)
Minimum temperature yesterday: 55 °F (at 4:50 AM)
Average temperature yesterday: 60 °F

Past Weeks' High & Low Weather Summary

 TemperatureHumidityPressure
High77 °F (Sep 8, 4:20 PM)100% (Sep 2, 12:20 PM)30.12 "Hg (Sep 2, 12:20 PM)
Low48 °F (Sep 13, 5:50 AM)41% (Sep 8, 3:50 PM)29.89 "Hg (Sep 12, 4:50 AM)
Average59 °F85%30.04 "Hg
* Reported Sep 1 10:50 PM — Sep 16 10:50 PM, Kapfenberg, Weather by CustomWeather, © 2014

Note: Actual official high and low records may vary slightly from our data, if they occured in-between our weather recording intervals... More about our weather records

Advertising

Kapfenberg weather history for previous 24 hours

 ConditionsComfort  
Time TempWeatherWind HumidityBarometerVisibility
10:50 PM
Sep 16
55 °FPassing clouds.2 mph88%30.12 "Hg12 mi
9:50 PM57 °FPassing clouds.3 mph82%30.12 "Hg12 mi
9:20 PM57 °FPartly cloudy.2 mph82%30.12 "Hg16 mi
8:50 PM59 °FPartly cloudy.2 mph77%30.12 "Hg16 mi
8:20 PM59 °FPartly cloudy.2 mph77%30.12 "Hg16 mi
7:50 PM59 °FBroken clouds.5 mph72%30.09 "Hg16 mi
7:20 PM61 °FBroken clouds.5 mph68%30.09 "Hg16 mi
6:50 PM61 °FBroken clouds.6 mph72%30.09 "Hg19 mi
6:20 PM63 °FBroken clouds.7 mph64%30.09 "Hg19 mi
5:50 PM64 °FBroken clouds.7 mph60%30.09 "Hg19 mi
5:20 PM63 °FBroken clouds.7 mph64%30.09 "Hg19 mi
4:50 PM63 °FBroken clouds.7 mph64%30.09 "Hg19 mi
4:20 PM64 °FBroken clouds.5 mph64%30.09 "Hg19 mi
3:50 PM64 °FBroken clouds.6 mph64%30.09 "Hg19 mi
3:20 PM64 °FPartly sunny.6 mph60%30.09 "Hg19 mi
2:50 PM63 °FPartly sunny.6 mph64%30.09 "Hg19 mi
2:20 PM63 °FBroken clouds.7 mph64%30.09 "Hg19 mi
1:20 PM63 °FPartly sunny.7 mph64%30.09 "Hg19 mi
12:50 PM63 °FPartly sunny.6 mph68%30.09 "Hg19 mi
12:20 PM63 °FPartly sunny.5 mph68%30.09 "Hg19 mi
11:50 AM63 °FPartly sunny.6 mph64%30.09 "Hg19 mi
11:20 AM63 °FPartly sunny.7 mph64%30.09 "Hg19 mi
10:50 AM63 °FScattered clouds.7 mph64%30.09 "Hg19 mi
10:20 AM63 °FScattered clouds.5 mph73%30.09 "Hg16 mi
9:50 AM61 °FScattered clouds.6 mph77%30.09 "Hg16 mi
9:20 AM59 °FPartly sunny.7 mph88%30.09 "Hg12 mi
8:50 AM59 °FPartly sunny.8 mph82%30.09 "Hg7 mi
8:20 AM57 °FPartly sunny.6 mph94%30.09 "Hg5 mi
7:50 AM57 °FBroken clouds.2 mph100%30.09 "Hg5 mi
7:20 AM55 °FPassing clouds.2 mph100%30.09 "Hg4 mi
6:50 AM55 °FPassing clouds.1 mph100%30.09 "Hg4 mi
5:50 AM55 °FLow clouds.1 mph100%30.09 "Hg4 mi
Weather by CustomWeather, © 2014

See weather overviewHow to use our weather pages